Location: Allonne
(49.4086°N, 2.1143°E)
Time: 11:50:09
(UTC+00:00)

DMSP B5D2-2 - Visible Passes

Search period start: 28 September 2023 00:00
Search period end: 08 October 2023 00:00
Orbit: 789 x 803 km, 98.3° (Epoch: 27 September)

Date Brightness Start Highest point End Pass type
(mag) Time Alt. Az. Time Alt. Az. Time Alt. Az.
28 Sep 6.5 02:39:37 10° ESE 02:43:29 21° ENE 02:47:23 10° N visible
28 Sep 4.0 04:17:23 10° S 04:22:38 71° WSW 04:27:55 10° NNW visible
28 Sep 5.6 18:06:26 10° N 18:11:23 41° WNW 18:16:16 10° SW visible
29 Sep 7.0 02:13:36 10° E 02:16:11 14° NE 02:18:47 10° NNE visible
29 Sep 4.3 03:49:43 10° SSE 03:54:56 71° ENE 04:00:12 10° N visible
29 Sep 7.1 19:20:07 10° NNW 19:22:30 13° NW 19:24:52 10° WNW visible
30 Sep 5.2 03:22:24 10° SE 03:27:20 44° ENE 03:32:20 10° N visible
30 Sep 4.8 05:02:30 10° SSW 05:07:07 31° W 05:11:48 10° NNW visible
30 Sep 6.8 18:51:26 10° NNW 18:55:12 20° WNW 18:58:58 10° WSW visible
01 Oct 6.1 02:55:29 10° ESE 02:59:52 28° ENE 03:04:17 10° N visible
01 Oct 4.2 04:34:08 10° S 04:39:14 52° W 04:44:25 10° NNW visible
01 Oct 6.1 18:23:12 10° N 18:27:48 31° WNW 18:32:22 10° WSW visible
02 Oct 6.7 02:29:01 10° E 02:32:30 18° NE 02:35:59 10° NNE visible
02 Oct 4.0 04:06:13 10° SSE 04:11:29 85° WSW 04:16:48 10° NNW visible
02 Oct 5.2 17:55:12 10° N 18:00:18 49° WNW 18:05:21 10° SW visible
03 Oct 7.2 02:03:27 10° ENE 02:05:14 12° NE 02:07:00 10° NNE visible
03 Oct 4.7 03:38:40 10° SSE 03:43:49 59° ENE 03:49:01 10° N visible
03 Oct 5.2 05:19:44 10° SW 05:23:51 23° W 05:28:00 10° NW visible
03 Oct 7.0 19:08:30 10° NNW 19:11:31 16° NW 19:14:32 10° W visible
04 Oct 5.6 03:11:30 10° SE 03:16:16 36° ENE 03:21:05 10° N visible
04 Oct 4.6 04:51:02 10° SSW 04:55:54 38° W 05:00:49 10° NNW visible
04 Oct 6.6 18:40:03 10° N 18:44:11 24° WNW 18:48:18 10° WSW visible
05 Oct 6.3 02:44:44 10° ESE 02:48:50 24° ENE 02:52:57 10° N visible
05 Oct 4.0 04:22:51 10° S 04:28:03 63° WSW 04:33:19 10° NNW visible
05 Oct 5.8 18:11:55 10° N 18:16:45 37° WNW 18:21:31 10° SW visible
06 Oct 6.9 02:18:32 10° E 02:21:30 15° NE 02:24:28 10° NNE visible
06 Oct 4.2 03:55:04 10° SSE 04:00:20 80° ENE 04:05:38 10° NNW visible
06 Oct 4.8 17:43:59 10° N 17:49:11 60° WNW 17:54:20 10° SSW visible
06 Oct 7.2 19:25:57 10° NNW 19:27:47 12° NW 19:29:38 10° WNW visible
07 Oct 5.0 03:27:40 10° SE 03:32:43 49° ENE 03:37:47 10° N visible
07 Oct 4.9 05:08:07 10° SSW 05:12:35 28° W 05:17:05 10° NW visible
07 Oct 6.9 18:57:00 10° NNW 19:00:31 18° NW 19:04:01 10° W visible
